Location: Bad Salzschlirf
(50.3750°N, 9.3000°E)
Time: 03:57:48
(UTC+02:00)

ISS - Pass Details

Date: 13 July 2025
Orbit: 413 x 417 km, 51.6° (Epoch: 12 July)

Event Time Altitude Azimuth Distance (km) Brightness Sun altitude
Rises 01:58:22 0° 287° (WNW) 2,357 0.2 -17.5°
Reaches altitude 10° 02:00:30 10° 281° (WNW) 1,492 -0.9 -17.5°
Enters shadow 02:03:20 46° 233° (SW) 573 -3.4 -17.4°
